Location: Friedrichshafen
(47.6558°N, 9.4781°E)
Time: 18:47:52
(UTC+00:00)

Daily predictions for brighter satellites

Satellite Brightness Start Highest point End
(mag) Time Altitude Azimuth Time Altitude Azimuth Time Altitude Azimuth
ATLAS 5 CENTAUR R/B 2.1 16:08:55 10° NW 16:13:17 74° SW 16:18:43 10° SSE
Cosmos 1802 Rocket 4.3 16:11:14 10° SSW 16:17:40 79° W 16:24:07 10° N
Cosmos 2344 4.4 16:11:18 10° NW 16:18:05 34° NNE 16:26:20 10° E
Iridium 4 Rocket 3.8 16:14:19 10° SSW 16:19:18 66° W 16:23:54 10° N
SAR-Lupe-4 4.0 16:16:31 10° SE 16:19:52 39° ENE 16:23:14 10° N
ISS -3.5 16:24:34 10° SW 16:27:52 60° SSE 16:30:57 12° ENE
CZ-2D R/B 3.2 16:26:11 10° SE 16:29:08 37° ENE 16:32:05 10° N
Cosmos 407 Rocket 3.7 16:25:20 10° S 16:30:19 50° ESE 16:35:17 10° NNE
COSMOS 2406 4.2 16:25:47 10° N 16:30:26 25° NE 16:35:05 10° E
Cosmos 1833 Rocket 3.5 16:25:01 10° NW 16:30:34 58° WSW 16:36:04 10° S
Cosmos 1484 Rocket 3.7 16:27:54 10° S 16:31:18 48° W 16:34:45 10° NNW
Cosmos 2016 Rocket 4.3 16:25:17 10° SSW 16:31:35 74° W 16:38:00 10° N
Cosmos 1812 3.4 16:30:03 10° SE 16:32:17 20° E 16:34:32 10° NE
IRS-P3 4.4 16:29:15 10° SE 16:34:18 46° ENE 16:39:22 10° N
TIMED 4.4 16:30:15 10° SSW 16:34:30 85° ESE 16:38:48 10° NNE
Tsikada Rocket 4.2 16:29:25 10° N 16:35:52 84° W 16:42:13 10° S
SMAP 3.0 16:36:45 10° SSE 16:41:25 83° ENE 16:46:06 10° NNW
Cosmos 44 Rocket 3.6 16:38:42 10° SSW 16:43:16 48° ESE 16:47:38 12° NE
Cosmos 540 Rocket 3.4 16:40:01 10° NNW 16:45:10 70° ENE 16:50:14 10° SSE
SJ 16-02 2.5 16:42:08 10° SSE 16:45:30 23° E 16:47:54 15° ENE
SPOT 1/Viking Rocket 4.1 16:41:34 10° SE 16:46:13 35° ENE 16:50:54 10° N
Cosmos 1869 2.9 16:43:46 10° S 16:47:13 60° E 16:50:41 10° NNE
YAOGAN 1 3.6 16:44:46 10° ESE 16:48:07 23° ENE 16:51:29 10° NNE
IGS 5A 4.3 16:44:45 10° S 16:48:37 51° W 16:52:31 10° NNW
SL-16 R/B 3.3 16:46:51 10° N 16:52:58 56° WNW 16:59:01 10° SW
Landsat 7 3.7 16:48:56 10° SSE 16:53:34 80° ENE 16:58:15 10° N
Cosmos 1763 Rocket 3.5 16:48:21 10° NNW 16:53:36 87° WSW 16:58:44 10° SSE
Nadezhda 4 Rocket 4.3 16:52:57 10° N 16:58:57 44° ENE 17:04:51 10° SE
RESURS DK-1 2.4 16:55:18 10° NNW 16:59:19 76° WSW 17:03:17 10° SSE
Timation 1 Rocket 4.4 16:53:20 10° NNW 16:59:21 88° WSW 17:05:19 10° SSE
Cosmos 1140 Rocket 4.3 16:54:23 10° SW 16:59:26 52° WNW 17:04:28 10° NNE
Aureole 3 Rocket 2.3 16:57:19 10° S 17:00:15 51° E 17:03:26 10° NNE
CZ-4C R/B 3.9 16:58:04 10° WNW 17:01:57 21° NNW 17:06:35 10° NNE
Resurs 1-3 4.3 16:58:39 10° SE 17:02:22 29° ENE 17:06:06 10° N
CZ-4 R/B 4.5 17:01:39 10° SE 17:05:28 48° ENE 17:09:19 10° N
SJ-6F 4.2 17:01:37 10° SSE 17:05:30 77° ENE 17:09:26 10° N
UNK 4.2 17:01:28 10° N 17:06:03 62° WNW 17:10:34 10° SSW
Cosmos 304 Rocket 4.5 17:04:14 10° SSE 17:08:23 32° ESE 17:10:27 22° ENE
Cosmos 1400 Rocket 3.3 17:06:13 10° SSE 17:09:41 34° E 17:11:08 25° NE
SJ-12 4.1 17:06:13 10° S 17:10:00 66° W 17:13:47 10° NNW
Cosmos 371 Rocket 4.0 17:05:48 10° SSE 17:10:02 32° ESE 17:12:04 23° ENE
Cosmos 1536 Rocket 3.7 17:08:13 10° N 17:12:34 50° ENE 17:16:50 10° SSE
SAR-Lupe-3 4.2 17:13:47 14° N 17:15:55 60° WNW 17:18:30 10° SSW
Helios 1A Rocket 3.5 17:16:48 27° ESE 17:16:48 27° ESE 17:19:12 10° SSE
Okean 2 Rocket 3.4 17:12:54 10° SSE 17:17:01 41° E 17:20:03 17° NNE
Cosmos 489 Rocket 4.4 17:13:13 10° NNW 17:19:26 61° ENE 17:25:34 10° SE
NOAA 6 4.3 17:20:32 10° SE 17:25:21 42° ENE 17:30:10 10° N
SL-12 R/B(2) 4.4 17:18:33 10° SW 17:26:34 82° NW 17:35:47 13° NE
Resurs 01 Rocket 3.4 17:30:11 16° NNE 17:30:11 16° NNE 17:31:27 10° N
COSMO-SKYMED 1 2.7 17:26:49 33° NE 17:28:09 44° E 17:32:05 10° S
Cosmos 1943 Rocket 2.5 17:24:21 10° SW 17:29:57 67° WNW 17:35:17 11° NNE
Timation 2 Rocket 4.5 17:24:29 10° SW 17:31:21 69° WNW 17:38:11 10° NNE
Cosmos 2251 Rocket 3.5 17:28:33 10° SSW 17:33:50 87° WNW 17:38:36 13° NNE
Cosmos 841 Rocket 3.5 17:29:10 10° NNW 17:34:23 60° ENE 17:38:54 14° SE
Cosmos 2058 3.1 17:30:32 10° NNW 17:34:30 68° W 17:38:26 10° S
SJ-7 4.0 17:31:54 10° SSE 17:35:33 68° ENE 17:39:13 10° N
BREEZE-M DEB (TANK) 2.5 17:35:14 10° W 17:37:56 82° N 17:39:49 37° ENE
Cosmos 2082 Rocket 2.4 17:33:58 10° NNW 17:39:34 72° WSW 17:45:09 10° SSE
ATLAS 2AS CENTAUR R/B 3.2 17:34:02 10° NW 17:40:21 39° NE 17:42:14 33° ENE
IRAS Rocket 4.1 17:37:00 10° SSE 17:42:34 84° ENE 17:48:07 10° NNW
Cosmos 2278 Rocket 2.7 17:37:55 10° SW 17:43:29 57° WNW 17:48:33 13° NNE
MOS 1 Rocket 3.9 17:40:40 10° S 17:44:53 52° W 17:49:19 10° NNW
Cosmos 1464 Rocket 4.0 17:43:19 10° S 17:49:37 84° W 17:55:53 10° N
ARIANE 5 R/B 4.4 17:45:37 10° SSW 17:49:58 30° W 17:54:22 10° NW
Cosmos 1634 Rocket 4.3 17:44:26 10° SSE 17:57:51 - NNE 17:50:01 39° E
CZ-2D R/B 3.8 17:46:30 10° S 17:50:36 65° WSW 17:54:48 10° NNW
Meteor 2-1 Rocket 4.3 17:45:31 10° S 17:51:18 60° E 17:57:11 10° NNE
Cosmos 2369 Rocket 3.7 17:48:14 10° SSE 17:50:09 19° SE 17:50:09 19° SE
USA 215 4.3 17:47:40 10° SSE 17:53:50 44° SW 18:00:04 10° WNW
PSLV R/B 3.4 17:52:21 10° S 17:56:23 79° WSW 18:00:26 10° NNW
Cosmos 1862 4.0 17:53:22 10° NNW 17:56:53 47° W 18:00:22 10° S
Cosmos 2151 Rocket 4.2 17:55:52 10° SSW 18:00:17 57° WNW 18:04:44 10° N
Cosmos 1190 Rocket 4.4 17:56:28 10° SW 18:01:42 62° WNW 18:05:27 19° NNE
Cosmos 2034 Rocket 3.9 17:57:20 10° S 18:03:32 85° E 18:09:51 10° N
ISS -2.4 18:01:30 10° W 18:03:52 36° NW 18:03:52 36° NW
Cosmos 676 Rocket 3.9 17:59:25 10° SSW 18:04:45 90° E 18:06:42 40° NNE
Okean 1 Rocket 3.1 18:02:32 10° SSW 18:06:55 74° W 18:08:25 40° N
Cosmos 1656 Rocket 3.5 18:01:56 10° SSW 18:07:25 67° ESE 18:07:59 62° ENE
SKYMED 2 4.4 18:03:51 13° N 18:07:37 51° WNW 18:11:49 10° SW
USA 281 3.3 18:11:28 49° ENE 18:11:49 50° NE 18:18:08 10° NNW
Sich 1 Rocket 4.0 18:08:11 10° SSW 18:12:41 65° WNW 18:14:56 29° N
Cosmos 1954 Rocket 4.5 18:08:56 10° SW 18:14:08 59° WNW 18:16:53 27° N
Cosmos 1932 4.4 18:08:33 10° SSW 18:14:53 77° SE 18:16:22 55° NE
COSMOS 2406 3.4 18:09:35 10° NNW 18:15:15 70° WSW 18:19:01 22° SSE
Cosmos 1092 Rocket 3.8 18:10:47 10° N 18:17:04 81° E 18:23:14 10° SSE
BlueWalker 3 4.1 18:14:35 10° SSW 18:15:40 18° SSW 18:15:40 18° SSW
Cosmos 2026 Rocket 3.9 18:15:55 10° N 18:22:03 84° W 18:28:13 10° S
Cosmos 968 Rocket 4.4 18:17:18 10° S 18:20:21 36° S 18:20:21 36° S
SJ 16-02 2.5 18:19:20 10° SW 18:23:23 40° WNW 18:24:29 33° NNW
YAOGAN 1 3.8 18:19:45 10° SSW 18:23:45 40° W 18:27:48 10° NNW
Cosmos 2344 3.9 18:25:31 10° NW 18:33:32 89° SW 18:38:34 35° SE
Meteor 2-3 Rocket 4.3 18:32:22 10° NNW 18:37:56 56° W 18:43:23 10° S
CZ-4C R/B 4.2 18:48:16 10° NW 18:51:49 19° N 18:51:49 19° N
Resurs 01 Rocket 4.3 19:07:36 13° NNW 19:07:36 13° NNW 19:08:12 10° NNW
ATLAS 2AS CENTAUR R/B 3.5 19:24:57 10° NW 19:29:41 46° WNW 19:29:41 46° WNW
